Location: Usti nad Orlici
(49.9830°N, 16.4000°E)
Time: 22:17:29
(UTC+02:00)

ISS - Visible Passes

Search period start: 19 May 2019 00:00
Search period end: 29 May 2019 00:00
Orbit: 407 x 410 km, 51.6° (Epoch: 20 May)

Date Brightness Start Highest point End Pass type
(mag) Time Alt. Az. Time Alt. Az. Time Alt. Az.
19 May -3.4 00:30:47 10° W 00:34:04 64° N 00:37:23 10° ENE visible
19 May -3.9 02:07:29 10° WNW 02:10:48 87° NNE 02:14:07 10° ESE visible
19 May -2.8 03:44:17 10° W 03:47:08 27° SW 03:49:59 10° SSE visible
19 May -3.4 22:03:32 10° SW 22:06:39 40° SSE 22:09:47 10° E visible
19 May -3.6 23:39:50 10° W 23:43:09 72° N 23:46:28 10° ENE visible
20 May -3.6 01:16:35 10° WNW 01:19:53 72° N 01:23:12 10° E visible
20 May -3.4 02:53:14 10° W 02:56:23 40° SSW 02:59:30 10° SE visible
20 May -3.9 22:48:55 10° WSW 22:52:13 87° NNW 22:55:33 10° ENE visible
21 May -3.4 00:25:39 10° WNW 00:28:57 64° N 00:31:55 12° E visible
21 May -3.0 02:02:17 10° WNW 02:04:30 37° W 02:04:30 37° W visible
21 May-0.303:46:07SSE03:46:07SSE03:37:06Wvisible
21 May -3.9 21:58:02 10° WSW 22:01:19 71° SSE 22:04:37 10° ENE visible
21 May -3.4 23:34:41 10° W 23:37:59 63° N 23:41:16 10° E visible
22 May -3.7 01:11:21 10° WNW 01:14:14 64° W 01:14:14 64° W visible
22 May -3.5 22:43:42 10° W 22:47:00 67° N 22:50:18 10° ENE visible
23 May -3.8 00:20:25 10° WNW 00:23:45 79° NNE 00:24:33 48° E visible
23 May -1.2 01:57:09 10° W 01:57:15 11° W 01:57:15 11° W visible
23 May -3.7 21:52:44 10° W 21:56:02 78° NNW 21:59:21 10° ENE visible
23 May -3.5 23:29:28 10° WNW 23:32:46 67° N 23:35:03 18° E visible
24 May -2.3 01:06:06 10° WNW 01:07:45 25° W 01:07:45 25° W visible
24 May -3.4 22:38:29 10° W 22:41:46 63° N 22:45:04 10° E visible
25 May -3.9 00:15:08 10° WNW 00:18:18 69° SW 00:18:18 69° SW visible
25 May -3.3 21:47:28 10° W 21:50:46 64° N 21:54:03 10° E visible
25 May -3.9 23:24:09 10° WNW 23:27:29 88° NNE 23:28:54 31° ESE visible
26 May -1.4 01:00:58 10° W 01:01:37 14° W 01:01:37 14° W visible
26 May -3.6 22:33:10 10° WNW 22:36:29 72° N 22:39:31 12° E visible
27 May -2.8 00:09:50 10° W 00:12:14 34° WSW 00:12:14 34° WSW visible
27 May -3.4 21:42:10 10° WNW 21:45:27 64° N 21:48:44 10° E visible
27 May -3.8 23:18:48 10° WNW 23:22:03 59° SSW 23:22:52 42° SSE visible
28 May -3.9 22:27:47 10° WNW 22:31:05 82° SSW 22:33:33 17° ESE visible
